Погода в Малоязе

Россия / Республика Башкортостан     55°10′47″N   58°09′21″E
темп.,
°C
ветер,
м/с
пор.,
м/с
влажн.,
%
обл.,
%
осадки,
мм/ч
давл.,
гПа
погр.,
м
9 мая, вс
вс923:00+12зюз2275100 0.2 101757
02:00+10зюз1186100 0.1 101610
05:00+9юз118891 0.1 101710
08:00+12з117584 0.3 1017216
11:00+17ссв125493 0.3 1016704
14:00+20св233624 0.0 10162189
17:00+20юв2336100 0.0 10162060
20:00+15ссв226346 0.0 101743
10 мая, пн
пн1023:00+12св11695 0.0 101810
02:00+10в11725 0.0 101910
05:00+9вюв11745 0.0 102010
08:00+14юв15585 0.0 1021287
11:00+18всв35470 0.0 10221128
14:00+21всв35345 0.0 10212416
17:00+21всв44306 0.0 10212619
20:00+17в36505 0.0 1022108
11 мая, вт
вт1123:00+12юв235535 0.0 102443
02:00+11в115656 0.0 102510
05:00+9вюв116194 0.0 102610
08:00+12юв1155100 0.0 1027122
11:00+17в2242100 0.0 1028522
14:00+20ссв2232100 0.0 10281106
17:00+20ссв2332100 0.0 10281298
20:00+16ссв22535 0.0 102823
12 мая, ср
ср1223:00+13ююв11535 0.0 102911
02:00+11ююз00585 0.0 103010
05:00+10зсз01640 0.0 103010
08:00+14с11644 0.0 1031196
11:00+18с22585 0.0 1030774
14:00+20с4348100 0.0 10291490
17:00+20ссв333692 0.0 10291119
20:00+16ссв23505 0.0 102943
13 мая, чт
чт1323:00+13с115461 0.0 102910
02:00+12с1162100 0.0 102910
05:00+10св117112 0.0 102910
08:00+15св116016 0.0 1029165
11:00+20ссв224811 0.0 1029694
14:00+22с224044 0.0 10281243
17:00+23с333878 0.0 10271346
20:00+19с115548 0.0 102711